Showing default

UMBRA-07, 58297

Orbit data source: Space-Track

UMBRA-07, 58297 is a payload satellite owned by Umbra Labs (US) in SSO that was launched on Sat, 11 Nov 2023 UTC via an FALCON 9 launch vehicle from the Air Force Western Test Range (AFWTR). Payload-class satellites include a variety of spacecraft equipped with specific instruments for various scientific and technological missions. These include communications satellites like Starlink; space stations such as the ISS; scientific satellites like the Hubble; Earth observation satellites from companies like Planet Labs, Umbra, and HawkEye 360; GPS; miniature CubeSats for education and research; and military/defense satellites.

Loading next visibility...
Identifier
58297, 2023-174AT
Orbit
SSO
Last TLE update
14 hours ago
Origin
Manufacturer
Umbra Labs
Mission
Operational Commercial Radar Imaging
Bus & Motor
ESPASTAR, Unknown motor
Mass
84 kg wet, 79 kg dry
Launch date (UTC)
2023-11-11 (2 years ago)
Launch vehicle
FALCON 9
Launch site
Air Force Western Test Range (AFWTR)
Object type
Payload
Rocket body
Debris
Shape & HBR
Box + 2 Pan + 1 Dish, 3.8 m
Radar Cross Section
0.929 m², Large (>1 m²)

Expand to show TLE details & history

TLE from 14 hours ago
0 UMBRA-07
1 58297U 23174AT  25186.19205411  .00008778  00000-0  69298-3 0  9990
2 58297  97.4187 251.1882 0002912 121.3950 238.7559 15.00923934 91220
Epoch: 2025-07-05T04:36Z
TLE epoch observation values (Epoch: 2025-07-05T04:36:33.475Z)
Latitude
-0.00009°
Longitude
-101.3849°
Altitude
568.159 km
Speed
7.576 km/s
True Right ascension
16h 44m 45s
True Declination
0° 00' 00"
Sunlit
Object was in full shadow at epoch
Visualization orbit readout
Latitude
-80.62768°
Longitude
27.48725°
Altitude
593.844 km
Speed
7.561 km/s
Apparent Right ascension
19h 24m 16s
Apparent Declination
-66° 21' 18"
Sunlit
Object is in daylight
Visualization observer readout
Local Sidereal Time
06:30:31
Azimuth
191.646° SSW
Elevation
-62.497°
Doppler factor
1
Orbital elements
Apogee altitude
563.058 km
Perigee altitude
559.017 km
Semi-major axis
6,939.175 km
Eccentricity
0.00029
Inclination
97.4187°
RAAN
251.1882°
Arg. of periapsis
121.395°
True anomaly
Unknown
Mean anomaly
238.7559°
Eccentric anomaly
Unknown
Mean motion
3.75475 °/min
Orbital period
95.88 mins
BSTAR
0.00069298
Loading maneuver chart data...
Loading SW <> Apogee altitude chart data...
Loading historical data...
Loading historical data...
Loading historical data...
Loading historical data...
Loading historical data...
Loading historical data...
Loading historical data...

UMBRA-07 Visibility forecast

Observer location: undefined°, undefined°

Span
Click to sort rows by Start time (UTC) header in descending order
Start Az.
Max El. time (UTC)
Max El. Az.
Max El.
End time (UTC)
End Az.
5 mins2025-07-06 04:44:57.712Z196.306° SSW2025-07-06 04:46:57.712Z253.804° W36.969°2025-07-06 04:49:57.712Z331.531° NNW
4 mins2025-07-06 16:24:57.712Z69.18° E2025-07-06 16:25:57.712Z90.265° ESE20.491°2025-07-06 16:28:57.712Z143.394° SSE
5 mins2025-07-06 17:58:57.712Z334.384° NNW2025-07-06 18:00:57.712Z294.206° NW23.463°2025-07-06 18:03:57.712Z237.655° WSW
|